Regional Weather Roundup
Issued by NWS

Home | Current Version | Previous Version | Text Only | Print | Product List | Glossary On
Versions: 1 2 3 4 5 6 7 8 9 10 11 12 13 14 15 16 17 18 19 20 21 22 23 24 25 26 27 28 29 30 31 32 33 34 35 36 37 38 39 40 41 42 43 44 45 46 47 48 49 50
000
ASUS43 KMKX 102000
RWRWI

WISCONSIN REGIONAL WEATHER ROUNDUP
NATIONAL WEATHER SERVICE MILWAUKEE/SULLIVAN WI
300 PM CDT THU JUL 10 2014

NOTE: "FAIR" INDICATES FEW OR NO CLOUDS BELOW 12,000 FEET WITH NO
SIGNIFICANT WEATHER AND/OR OBSTRUCTIONS TO VISIBILITY.

WIZ001-002-006>008-014>016-023>028-102100-
NORTHWEST WISCONSIN

CITY           SKY/WX    TMP DP  RH WIND       PRES   REMARKS
SUPERIOR ARPT  SUNNY     67  56  68 NE8       30.02F
ASHLAND        PTSUNNY   76  56  49 S8        30.04F
HAYWARD        MOSUNNY   77  55  46 MISG      30.05F
SIREN          MOSUNNY   81  54  39 S5        30.03F HX  80
RICE LAKE      MOSUNNY   79  57  47 SE6       30.06F HX  80
LADYSMITH      MOSUNNY   78  58  49 SW7       30.10S
EAU CLAIRE     NOT AVBL
MENOMONIE      CLEAR     82  62  50 S7        30.05F HX  82
NEW RICHMOND   SUNNY     80  60  49 S9        30.04S HX  81
OSCEOLA        SUNNY     81  60  48 S8        30.04F HX  82
$$

WIZ003>005-009-010-017-018-102100-
NORTH CENTRAL WISCONSIN

CITY           SKY/WX    TMP DP  RH WIND       PRES   REMARKS
WOODRUFF       MOSUNNY   77  53  43 S9        30.11F
RHINELANDER    MOSUNNY   75  53  46 S10       30.13F
EAGLE RIVER    PTSUNNY   72  51  47 SW6       30.12F
LAND O LAKES   MOSUNNY   74  50  42 S7        30.13S
PHILLIPS       MOSUNNY   74  55  51 S10       30.09F
TOMAHAWK       MOSUNNY   74  55  50 CALM      30.12F
MEDFORD        MOSUNNY   75  59  57 S9        30.11F
MERRILL        MOSUNNY   76  55  48 S9        30.12F
$$

WIZ029-030-035-036-043>047-102100-
CENTRAL WISCONSIN

CITY           SKY/WX    TMP DP  RH WIND       PRES   REMARKS
WAUSAU         PTSUNNY   76  56  49 S12G18    30.10F
MOSINEE        PTSUNNY   75  57  53 S9        30.13F
MARSHFIELD     MOSUNNY   75  59  57 S10       30.10F
STEVENS POINT  PTSUNNY   76  56  50 S12G17    30.13F
WAUPACA        MOSUNNY   80  54  40 SE9       30.13F HX  80
WAUTOMA        NOT AVBL
WISC RAPIDS    MOSUNNY   80  57  45 SW10      30.12F HX  80
CAMP DOUGLAS   NOT AVBL
$$

WIZ011>013-019>022-031-037>040-048>050-102100-
NORTHEAST WISCONSIN

CITY           SKY/WX    TMP DP  RH WIND       PRES   REMARKS
ANTIGO         PTSUNNY   74  58  56 S9        30.15S
STURGEON BAY   SUNNY     68  55  64 SE10      30.17F
GREEN BAY      PTSUNNY   76  51  41 CALM      30.14F
MANITOWOC      NOT AVBL
APPLETON       PTSUNNY   73  54  49 S9        30.15F
CLINTONVILLE   PTSUNNY   77  52  41 SE6       30.13F
OSHKOSH        CLOUDY    76  56  49 S3        30.14S
$$

WIZ032>034-041-042-053>061-102100-
SOUTHWEST WISCONSIN

CITY           SKY/WX    TMP DP  RH WIND       PRES   REMARKS
LA CROSSE      MOSUNNY   83  62  49 SW10      30.07F HAZE    HX  84
SPARTA         PTSUNNY   78  61  54 SW3       30.10F HX  80
VIROQUA        MOCLDY    76  62  60 S8        30.12F
BOSCOBEL       MOSUNNY   82  60  47 SW10      30.10F HX  82
PRAIRIE DU CHI PTSUNNY   80  57  45 S8        30.09F HX  80
PLATTEVILLE    FAIR      78  61  54 S7        30.14F HX  80
$$

WIZ056-057-062-063-064-067-068-102100-
SOUTH CENTRAL WISCONSIN

CITY           SKY/WX    TMP DP  RH WIND       PRES   REMARKS
BARABOO/DELLS  MOSUNNY   79  58  48 S10       30.13F HX  80
LONE ROCK      NOT AVBL
WATERTOWN      SUNNY     77  55  45 W3        30.15S
MADISON        PTSUNNY   79  58  48 S10       30.14S HX  80
MIDDLETON      MOCLDY    79  57  47 SW8       30.14F HX  80
MONROE         MOSUNNY   73  59  60 S8        30.14F
JANESVILLE     MOSUNNY   81  55  41 S5        30.14F HX  80
$$

WIZ051-052-058>065-066-070>072-102100-
SOUTHEAST WISCONSIN

CITY           SKY/WX    TMP DP  RH WIND       PRES   REMARKS
MILWAUKEE      MOSUNNY   69  56  62 SE14      30.17F
WAUKESHA       PTSUNNY   73  57  56 SE10      30.16F
MILWAUKEE/TIMM SUNNY     72  50  46 SE9       30.18S
RACINE         SUNNY     70  56  61 SE12      30.19F
BURLINGTON     PTSUNNY   74  58  57 E7        30.16F
KENOSHA        SUNNY     72  58  61 E13       30.18F
FOND DU LAC    MOSUNNY   78  55  44 SW6       30.14F
SHEBOYGAN      SUNNY     70  55  59 SE12      30.17F
WEST BEND      MOSUNNY   72  55  56 E9        30.17S
JUNEAU         SUNNY     76  38  25 S8        30.16S
$$

LSZ147-162-102100-
LAKE SUPERIOR

STATION/POSITION TIME  TEMP    WIND        PRES    WAVE
                       AIR SEA DIR/SP/G            HT/PER
                 (UTC) (F)     (DEG/KT/KT) (MB)    (FT/S)
W MID LAKE BUOY  1850   49 39  120/  6/  6 1018.8F   0
PORT WING        1900   62      30/ 10/ 14 1017.3F
SAXON HARBOR     1930           70/  1/ 14 1017.6F
$$

LMZ867-665-643>646-102100-
LAKE MICHIGAN

STATION/POSITION TIME  TEMP    WIND        PRES    WAVE
                       AIR SEA DIR/SP/G            HT/PER
                 (UTC) (F)     (DEG/KT/KT) (MB)    (FT/S)
N MID LAKE BUOY  1850   58 55  200/  8/ 10 1022.1S   0
NORTHPORT PIER   1900   63     150/ 12/ 15 1022.0S
KEWAUNEE LAKESHO 1900   55     160/  6/  8 1022.9F
SHEBOYGAN LAKESH 1900   58     170/  6/  6 1022.5F
PORT WASHINGTON  1900   64     140/  4/  6 1022.7F
MILWAUKEE LAKESH 1900   61     130/ 10/ 11   N/A
S MID LAKE BUOY  1850   62 62   CALM  /  2 1022.9F   0
KENOSHA   LAKESH 1900   65     140/ 12/ 12   N/A
$$

TC  - TEMPERATURE IN CELSIUS
VSB - VISIBILITY IN STATUTE MILES
WCI - WIND CHILL INDEX
HX  - HEAT INDEX



USA.gov is the U.S. government's official web portal to all federal, state and local government web resources and services.